Time,TemperatureF,DewpointF,PressureIn,WindDirection,WindDirectionDegrees,WindSpeedMPH,WindSpeedGustMPH,Humidity,HourlyPrecipIn,Conditions,Clouds,dailyrainin,SolarRadiationWatts/m^2,SoftwareType,DateUTC
2013-02-17 00:02:00,24.0,10.0,-100.00,SSW,196,4.0,14.0,55,0.00,,,0.00,0.000000,,2013-02-17 05:02:00,
2013-02-17 00:33:00,24.0,7.0,-100.00,West,264,3.0,10.0,47,0.00,,,0.00,0.000000,,2013-02-17 05:33:00,
2013-02-17 00:42:00,24.0,7.0,-100.00,West,264,3.0,10.0,47,0.00,,,0.00,0.000000,,2013-02-17 05:42:00,
2013-02-17 00:52:00,24.0,7.0,-100.00,West,264,3.0,10.0,47,0.00,,,0.00,0.000000,,2013-02-17 05:52:00,
2013-02-17 01:02:00,24.0,7.0,-100.00,West,264,3.0,10.0,47,0.00,,,0.00,0.000000,,2013-02-17 06:02:00,
2013-02-17 01:32:00,23.0,5.0,-100.00,ENE,57,4.0,9.0,46,0.00,,,0.00,0.000000,,2013-02-17 06:32:00,
2013-02-17 01:42:00,23.0,5.0,-100.00,ENE,57,4.0,9.0,46,0.00,,,0.00,0.000000,,2013-02-17 06:42:00,
2013-02-17 01:52:00,23.0,5.0,-100.00,ENE,57,4.0,9.0,46,0.00,,,0.00,0.000000,,2013-02-17 06:52:00,
2013-02-17 02:01:00,23.0,5.0,-100.00,ENE,57,4.0,9.0,46,0.00,,,0.00,0.000000,,2013-02-17 07:01:00,
2013-02-17 02:32:00,22.0,5.0,-100.00,NW,324,3.0,7.0,48,0.00,,,0.00,0.000000,,2013-02-17 07:32:00,
2013-02-17 02:42:00,22.0,5.0,-100.00,NW,324,3.0,7.0,48,0.00,,,0.00,0.000000,,2013-02-17 07:42:00,
2013-02-17 02:52:00,22.0,5.0,-100.00,NW,324,3.0,7.0,48,0.00,,,0.00,0.000000,,2013-02-17 07:52:00,
2013-02-17 03:01:00,22.0,5.0,-100.00,NW,324,3.0,7.0,48,0.00,,,0.00,0.000000,,2013-02-17 08:01:00,
2013-02-17 03:32:00,22.0,6.0,-100.00,SSW,210,3.0,8.0,50,0.00,,,0.00,0.000000,,2013-02-17 08:32:00,
2013-02-17 03:42:00,22.0,6.0,-100.00,SSW,210,3.0,8.0,50,0.00,,,0.00,0.000000,,2013-02-17 08:42:00,
2013-02-17 03:52:00,22.0,6.0,-100.00,SSW,210,3.0,8.0,50,0.00,,,0.00,0.000000,,2013-02-17 08:52:00,
2013-02-17 04:02:00,22.0,6.0,-100.00,SSW,210,3.0,8.0,50,0.00,,,0.00,0.000000,,2013-02-17 09:02:00,
2013-02-17 04:32:00,22.0,7.0,-100.00,North,358,3.0,8.0,51,0.00,,,-99.99,0.000000,,2013-02-17 09:32:00,
2013-02-17 04:42:00,22.0,7.0,-100.00,North,358,3.0,8.0,51,0.00,,,-99.99,0.000000,,2013-02-17 09:42:00,
2013-02-17 04:52:00,22.0,7.0,-100.00,North,358,3.0,8.0,51,0.00,,,-99.99,0.000000,,2013-02-17 09:52:00,
2013-02-17 05:01:00,22.0,7.0,-100.00,North,358,3.0,8.0,51,0.00,,,-99.99,0.000000,,2013-02-17 10:01:00,
2013-02-17 05:32:00,20.0,6.0,-100.00,West,261,2.0,6.0,53,0.00,,,0.00,0.000000,,2013-02-17 10:32:00,
2013-02-17 05:42:00,20.0,6.0,-100.00,West,261,2.0,6.0,53,0.00,,,0.00,0.000000,,2013-02-17 10:42:00,
2013-02-17 05:52:00,20.0,6.0,-100.00,West,261,2.0,6.0,53,0.00,,,0.00,0.000000,,2013-02-17 10:52:00,
2013-02-17 06:01:00,20.0,6.0,-100.00,West,261,2.0,6.0,53,0.00,,,0.00,0.000000,,2013-02-17 11:01:00,
2013-02-17 06:32:00,17.0,8.0,-100.00,WSW,254,2.0,5.0,66,0.00,,,0.00,0.000000,,2013-02-17 11:32:00,
2013-02-17 06:42:00,17.0,8.0,-100.00,WSW,254,2.0,5.0,66,0.00,,,0.00,0.000000,,2013-02-17 11:42:00,
2013-02-17 06:53:00,17.0,8.0,-100.00,WSW,254,2.0,5.0,66,0.00,,,0.00,0.000000,,2013-02-17 11:53:00,
2013-02-17 07:03:00,17.0,8.0,-100.00,WSW,254,2.0,5.0,66,0.00,,,0.00,0.000000,,2013-02-17 12:03:00,
2013-02-17 07:32:00,20.0,6.0,-100.00,West,266,3.0,7.0,55,0.00,,,0.00,0.000000,,2013-02-17 12:32:00,
2013-02-17 07:42:00,20.0,6.0,-100.00,West,266,3.0,7.0,55,0.00,,,0.00,0.000000,,2013-02-17 12:42:00,
2013-02-17 07:52:00,20.0,6.0,-100.00,West,266,3.0,7.0,55,0.00,,,0.00,0.000000,,2013-02-17 12:52:00,
2013-02-17 08:02:00,20.0,6.0,-100.00,West,266,3.0,7.0,55,0.00,,,0.00,0.000000,,2013-02-17 13:02:00,
2013-02-17 09:32:00,28.0,9.0,-100.00,WNW,295,4.0,7.0,45,-99.99,,,0.00,267.000000,,2013-02-17 14:32:00,
2013-02-17 09:42:00,28.0,9.0,-100.00,WNW,295,4.0,7.0,45,-99.99,,,0.00,267.000000,,2013-02-17 14:42:00,
2013-02-17 09:53:00,28.0,9.0,-100.00,WNW,295,4.0,7.0,45,-99.99,,,0.00,267.000000,,2013-02-17 14:53:00,
2013-02-17 10:02:00,28.0,9.0,-100.00,WNW,295,4.0,7.0,45,-99.99,,,0.00,267.000000,,2013-02-17 15:02:00,
2013-02-17 10:32:00,28.0,8.0,-100.00,WSW,244,7.0,11.0,43,0.00,,,0.00,483.000000,,2013-02-17 15:32:00,
2013-02-17 10:42:00,28.0,8.0,-100.00,WSW,244,7.0,11.0,43,0.00,,,0.00,483.000000,,2013-02-17 15:42:00,
2013-02-17 10:52:00,28.0,8.0,-100.00,WSW,244,7.0,11.0,43,0.00,,,0.00,483.000000,,2013-02-17 15:52:00,
2013-02-17 11:01:00,28.0,8.0,-100.00,WSW,244,7.0,11.0,43,0.00,,,0.00,483.000000,,2013-02-17 16:01:00,
2013-02-17 11:32:00,31.0,10.0,-100.00,WNW,291,5.0,11.0,41,0.00,,,0.00,659.000000,,2013-02-17 16:32:00,
2013-02-17 11:42:00,31.0,10.0,-100.00,WNW,291,5.0,11.0,41,0.00,,,0.00,659.000000,,2013-02-17 16:42:00,
2013-02-17 11:52:00,31.0,10.0,-100.00,WNW,291,5.0,11.0,41,0.00,,,0.00,659.000000,,2013-02-17 16:52:00,
2013-02-17 12:02:00,31.0,10.0,-100.00,WNW,291,5.0,11.0,41,0.00,,,0.00,659.000000,,2013-02-17 17:02:00,
2013-02-17 12:32:00,34.0,12.0,-100.00,NW,307,6.0,14.0,40,0.00,,,0.00,776.000000,,2013-02-17 17:32:00,
2013-02-17 12:42:00,34.0,12.0,-100.00,NW,307,6.0,14.0,40,0.00,,,0.00,776.000000,,2013-02-17 17:42:00,
2013-02-17 12:52:00,34.0,12.0,-100.00,NW,307,6.0,14.0,40,0.00,,,0.00,776.000000,,2013-02-17 17:52:00,
2013-02-17 13:02:00,34.0,12.0,-100.00,NW,307,6.0,14.0,40,0.00,,,0.00,776.000000,,2013-02-17 18:02:00,
2013-02-17 13:33:00,35.0,11.0,-100.00,NNW,333,6.0,15.0,37,0.00,,,0.00,809.000000,,2013-02-17 18:33:00,
2013-02-17 13:42:00,35.0,11.0,-100.00,NNW,333,6.0,15.0,37,0.00,,,0.00,809.000000,,2013-02-17 18:42:00,
2013-02-17 13:52:00,35.0,11.0,-100.00,NNW,333,6.0,15.0,37,0.00,,,0.00,809.000000,,2013-02-17 18:52:00,
2013-02-17 14:02:00,35.0,11.0,-100.00,NNW,333,6.0,15.0,37,0.00,,,0.00,809.000000,,2013-02-17 19:02:00,
2013-02-17 14:32:00,38.0,12.0,-100.00,West,271,7.0,16.0,34,0.00,,,0.00,788.000000,,2013-02-17 19:32:00,
2013-02-17 14:42:00,38.0,12.0,-100.00,West,271,7.0,16.0,34,0.00,,,0.00,788.000000,,2013-02-17 19:42:00,
2013-02-17 14:52:00,38.0,12.0,-100.00,West,271,7.0,16.0,34,0.00,,,0.00,788.000000,,2013-02-17 19:52:00,
2013-02-17 15:02:00,38.0,12.0,-100.00,West,271,7.0,16.0,34,0.00,,,0.00,788.000000,,2013-02-17 20:02:00,
2013-02-17 15:32:00,38.0,9.0,-100.00,WNW,301,8.0,16.0,30,0.00,,,0.00,697.000000,,2013-02-17 20:32:00,
2013-02-17 15:43:00,38.0,9.0,-100.00,WNW,301,8.0,16.0,30,0.00,,,0.00,697.000000,,2013-02-17 20:43:00,
2013-02-17 15:52:00,38.0,9.0,-100.00,WNW,301,8.0,16.0,30,0.00,,,0.00,697.000000,,2013-02-17 20:52:00,
2013-02-17 16:02:00,38.0,9.0,-100.00,WNW,301,8.0,16.0,30,0.00,,,0.00,697.000000,,2013-02-17 21:02:00,
2013-02-17 16:32:00,40.0,10.0,-100.00,WNW,292,5.0,14.0,28,0.00,,,0.00,537.000000,,2013-02-17 21:32:00,
2013-02-17 16:42:00,40.0,10.0,-100.00,WNW,292,5.0,14.0,28,0.00,,,0.00,537.000000,,2013-02-17 21:42:00,
2013-02-17 16:53:00,40.0,10.0,-100.00,WNW,292,5.0,14.0,28,0.00,,,0.00,537.000000,,2013-02-17 21:53:00,
2013-02-17 17:01:00,40.0,10.0,-100.00,WNW,292,5.0,14.0,28,0.00,,,0.00,537.000000,,2013-02-17 22:01:00,
2013-02-17 17:32:00,40.0,9.0,-100.00,WNW,289,5.0,13.0,27,0.00,,,0.00,333.000000,,2013-02-17 22:32:00,
2013-02-17 17:42:00,40.0,9.0,-100.00,WNW,289,5.0,13.0,27,0.00,,,0.00,333.000000,,2013-02-17 22:42:00,
2013-02-17 17:52:00,40.0,9.0,-100.00,WNW,289,5.0,13.0,27,0.00,,,0.00,333.000000,,2013-02-17 22:52:00,
2013-02-17 18:02:00,40.0,9.0,-100.00,WNW,289,5.0,13.0,27,0.00,,,0.00,333.000000,,2013-02-17 23:02:00,
2013-02-17 18:32:00,38.0,9.0,-100.00,NNW,340,3.0,7.0,29,0.00,,,0.00,116.000000,,2013-02-17 23:32:00,
2013-02-17 18:42:00,38.0,9.0,-100.00,NNW,340,3.0,7.0,29,0.00,,,0.00,116.000000,,2013-02-17 23:42:00,
2013-02-17 18:52:00,38.0,9.0,-100.00,NNW,340,3.0,7.0,29,0.00,,,0.00,116.000000,,2013-02-17 23:52:00,
2013-02-17 19:02:00,38.0,9.0,-100.00,NNW,340,3.0,7.0,29,0.00,,,0.00,116.000000,,2013-02-18 00:02:00,
2013-02-17 19:32:00,28.0,10.0,-100.00,NNW,336,2.0,4.0,47,0.00,,,0.00,4.000000,,2013-02-18 00:32:00,
2013-02-17 21:32:00,26.0,11.0,-100.00,North,353,2.0,3.0,52,-99.99,,,0.00,0.000000,,2013-02-18 02:32:00,
2013-02-17 21:42:00,26.0,11.0,-100.00,North,353,2.0,3.0,52,-99.99,,,0.00,0.000000,,2013-02-18 02:42:00,
2013-02-17 21:52:00,26.0,11.0,-100.00,North,353,2.0,3.0,52,-99.99,,,0.00,0.000000,,2013-02-18 02:52:00,
2013-02-17 22:02:00,26.0,11.0,-100.00,North,353,2.0,3.0,52,-99.99,,,0.00,0.000000,,2013-02-18 03:02:00,
2013-02-17 22:32:00,25.0,12.0,-100.00,NNW,333,1.0,3.0,57,0.00,,,0.00,0.000000,,2013-02-18 03:32:00,
2013-02-17 22:42:00,25.0,12.0,-100.00,NNW,333,1.0,3.0,57,0.00,,,0.00,0.000000,,2013-02-18 03:42:00,
2013-02-17 22:52:00,25.0,12.0,-100.00,NNW,333,1.0,3.0,57,0.00,,,0.00,0.000000,,2013-02-18 03:52:00,
2013-02-17 23:01:00,25.0,12.0,-100.00,NNW,333,1.0,3.0,57,0.00,,,0.00,0.000000,,2013-02-18 04:01:00,
2013-02-17 23:32:00,25.0,12.0,-100.00,North,349,2.0,3.0,56,0.00,,,0.00,0.000000,,2013-02-18 04:32:00,
2013-02-17 23:42:00,25.0,12.0,-100.00,North,349,2.0,3.0,56,0.00,,,0.00,0.000000,,2013-02-18 04:42:00,
2013-02-17 23:52:00,25.0,12.0,-100.00,North,349,2.0,3.0,56,0.00,,,0.00,0.000000,,2013-02-18 04:52:00,